Location: Borger
(52.9222°N, 6.7926°E)
Time: 05:10:49
(UTC+00:00)

Cosmos 2360 Rocket - Pass Details

Date: 15 May 2026
Orbit: 831 x 845 km, 71.0° (Epoch: 6 June)

Event Time Altitude Azimuth Distance (km) Brightness Sun altitude
Rises 21:44:04 0° 324° (NW) 3,417 7.1 -14.5°
Reaches altitude 10° 21:46:40 10° 317° (NW) 2,478 5.8 -14.7°
Maximum altitude 21:51:50 37° 252° (WSW) 1,289 3.2 -15.0°
Enters shadow 21:55:44 16° 193° (SSW) 2,047 3.7 -15.2°
